Overview Statistics Trail Chart Weather Telemetry Raw packets
 

This is the latest recevied weather packets stored in our database for station/object K7SKM. If no packets are shown the sender has not sent any weather packets the latest 10 day(s).

<< 105 106 107 108 109 110 111 >>
Time Temp. Humidity Pressure Rain* Wind** Luminosity Snow
1787884352 20.56° C 58% 1022.1 hPa 0 mm - 7 W/m² -
1787884052 20.56° C 58% 1022.2 hPa 0 mm - 9 W/m² -
1787883747 20.56° C 58% 1022.1 hPa 0 mm - 10 W/m² -
1787883443 20.56° C 57% 1022.1 hPa 0 mm - 12 W/m² -
1787883141 21.11° C 58% 1022.1 hPa 0 mm - 13 W/m² -
1787882837 21.11° C 58% 1022.2 hPa 0 mm - 16 W/m² -
1787882534 21.67° C 57% 1022.1 hPa 0 mm - 17 W/m² -
1787882230 21.67° C 57% 1022.1 hPa 0 mm - 18 W/m² -
1787881624 21.67° C 57% 1022.1 hPa 0 mm - 20 W/m² -
1787881320 21.67° C 56% 1022 hPa 0 mm - 21 W/m² -
1787881015 22.22° C 56% 1021.9 hPa 0 mm - 22 W/m² -
1787880710 22.22° C 54% 1021.9 hPa 0 mm - 23 W/m² -
1787880409 22.78° C 53% 1021.9 hPa 0 mm - 25 W/m² -
1787880103 23.33° C 52% 1022 hPa 0 mm - 92 W/m² -
1787879798 24.44° C 49% 1022.1 hPa 0 mm - 238 W/m² -
1787879493 24.44° C 49% 1022.2 hPa 0 mm - 263 W/m² -
1787879189 25° C 50% 1021.9 hPa 0 mm - 269 W/m² -
1787878886 23.89° C 52% 1022.1 hPa 0 mm - 272 W/m² -
1787878585 23.89° C 52% 1022.1 hPa 0 mm - 283 W/m² -
1787878280 25° C 49% 1022.1 hPa 0 mm - 291 W/m² -
1787877976 23.89° C 51% 1022 hPa 0 mm - 296 W/m² -
1787877671 23.33° C 51% 1022 hPa 0 mm - 307 W/m² -
1787877367 24.44° C 49% 1022 hPa 0 mm - 324 W/m² -
1787877062 24.44° C 48% 1022.1 hPa 0 mm - 354 W/m² -
1787876756 25° C 47% 1022.1 hPa 0 mm - 359 W/m² -

* Rain latest hour (hover to see other rain measurements)
** Current wind speed in m/s (hover to see current wind gust speed)